BEIDOU-3 M23

Last updated on Tue Jul 01 2025 00:02:33 GMT+0000 (Coordinated Universal Time)

1 44543U 19061B 25181.31048104 .00000055 00000+0 00000+0 0 9993 2 44543 54.4098 194.5627 0005656 328.6492 152.3048 1.86229498 39242
UTC large
Height (km)
Speed (km/s)
/
Latitude / Longitude
Inclination (degrees)
Orbital Period (minutes)
Azimuth
Elevation
Range (km)
Doppler Factor

Next 0 passes for location: London (51.5072 / 0.1276)

Sorry there are no passes over London.